Home   Weather   Town of Fairfield   Past weeks
Flag for USA

Past Weather in Town of Fairfield, Vermont, USA — Yesterday and Last 2 Weeks

Now
15 °F

Clear.


Feels Like: 9 °F
Forecast: 33 / 16 °F
Wind: 3 mph from Southeast

Location: Burlington International Airport

Current Time: Dec 7, 2019 at 9:50:51 pm

Latest Report: Dec 7, 2019 at 8:54 pm


Visibility: 10 mi

Pressure: 30.45 "Hg

Humidity: 80%

Dew Point: 10 °F

Location of Town of FairfieldLocation

Past Weather in Town of Fairfield — Graph

°F

Town of Fairfield Temperature Yesterday

Maximum temperature yesterday: 29 °F (at 11:54 am)
Minimum temperature yesterday: 24 °F (at 10:54 pm)
Average temperature yesterday: 27 °F

High & Low Weather Summary for the Past Weeks

 TemperatureHumidityPressure
High53 °F (Nov 26, 2:54 pm)97% (Nov 27, 8:34 am)30.45 "Hg (Nov 27, 8:34 am)
Low11 °F (Dec 1, 6:54 am)42% (Nov 23, 1:54 pm)29.40 "Hg (Dec 4, 1:54 pm)
Average31 °F73%29.86 "Hg
* Reported Nov 22 7:54 pm — Dec 7 7:54 pm, Town of Fairfield. Weather by CustomWeather, © 2019

Note: Actual official high and low records may vary slightly from our data, if they occured in-between our weather recording intervals... More about our weather records

Town of Fairfield Weather History for the Previous 24 Hours

Scroll right to see more
 ConditionsComfort  
Time TempWeatherWind HumidityBarometerVisibility
7:54 pm
Sat, Dec 7
21 °FPassing clouds.No wind65%30.45 "Hg10 mi
6:54 pm23 °FPassing clouds.7 mph63%30.44 "Hg10 mi
5:54 pm23 °FLight snow. Overcast.No wind81%30.42 "Hg6 mi
4:54 pm23 °FLight snow. Overcast.No wind78%30.40 "Hg4 mi
4:41 pm23 °FLight snow. Overcast.3 mph78%30.38 "Hg3 mi
4:22 pm23 °FLight snow. Overcast.3 mph74%30.38 "Hg3 mi
4:03 pm24 °FLight snow. Overcast.6 mph68%30.37 "Hg6 mi
3:54 pm24 °FOvercast.5 mph68%30.38 "Hg10 mi
2:54 pm25 °FPartly sunny.6 mph66%30.36 "Hg10 mi
1:54 pm25 °FLight snow. Partly sunny.6 mph72%30.35 "Hg9 mi
12:54 pm24 °FLight snow. Partly sunny.7 mph68%30.34 "Hg9 mi
11:54 am25 °FLight snow. Mostly cloudy.8 mph60%30.34 "Hg9 mi
10:54 am24 °FLight snow. Overcast.10 mph62%30.34 "Hg9 mi
9:54 am24 °FLight snow. Mostly cloudy.9 mph65%30.33 "Hg4 mi
9:24 am24 °FMostly cloudy.3 mph77%30.31 "Hg10 mi
8:54 am23 °FOvercast.3 mph81%30.31 "Hg9 mi
8:34 am22 °FLight snow. Mostly cloudy.3 mph85%30.29 "Hg9 mi
7:54 am23 °FCloudy.No wind74%30.29 "Hg9 mi
6:54 am22 °FLight snow. Mostly cloudy.5 mph82%30.28 "Hg8 mi
6:00 am22 °FLight snow. Overcast.No wind75%30.24 "Hg10 mi
4:54 am22 °FMostly cloudy.No wind72%30.24 "Hg10 mi
3:54 am22 °FOvercast.8 mph72%30.22 "Hg10 mi
3:32 am22 °FOvercast.5 mph72%30.20 "Hg10 mi
2:54 am22 °FOvercast.6 mph72%30.21 "Hg10 mi
1:54 am24 °FOvercast.6 mph68%30.19 "Hg10 mi
1:27 am24 °FMostly cloudy.6 mph68%30.17 "Hg10 mi
12:54 am24 °FMostly cloudy.5 mph68%30.17 "Hg10 mi
12:30 am24 °FMostly cloudy.5 mph68%30.15 "Hg10 mi
11:54 pm
Fri, Dec 6
24 °FPassing clouds.8 mph65%30.16 "Hg10 mi
10:54 pm24 °FLight snow. Overcast.7 mph65%30.14 "Hg9 mi
9:54 pm25 °FLight snow. Overcast.12 mph69%30.12 "Hg9 mi
9:38 pm25 °FLight snow. Mostly cloudy.9 mph69%30.10 "Hg9 mi
Weather by CustomWeather, © 2019

See weather overview

Advertising